,,PressureMeas_1m,,PRMeasQMR101_1,,RHStat155_1m_1,,SRMeasQMS101R_1m,,TAStat155_1m_1,,GenWind_1,,GenWind_1,
2019-04-21, 00:00:06,VALID,916.148,VALID,0.0,VALID,96.836,VALID,-0.007,VALID,21.637,VALID,69.0,VALID,0.0,
2019-04-21, 00:01:06,VALID,916.145,VALID,0.0,VALID,96.868,VALID,-0.002,VALID,21.59,VALID,69.0,VALID,0.0,
2019-04-21, 00:02:06,VALID,916.132,VALID,0.0,VALID,96.907,VALID,-0.008,VALID,21.599,VALID,69.0,VALID,0.0,
2019-04-21, 00:03:06,VALID,916.142,VALID,0.0,VALID,97.126,VALID,-0.03,VALID,21.591,VALID,69.0,VALID,0.0,
2019-04-21, 00:04:06,VALID,916.131,VALID,0.0,VALID,96.784,VALID,-0.025,VALID,21.523,VALID,69.0,VALID,0.0,
2019-04-21, 00:05:06,VALID,916.143,VALID,0.0,VALID,96.361,VALID,-0.021,VALID,21.482,VALID,69.0,VALID,0.0,
2019-04-21, 00:06:06,VALID,916.16,VALID,0.0,VALID,96.281,VALID,-0.015,VALID,21.475,VALID,69.0,VALID,0.0,
2019-04-21, 00:07:06,VALID,916.168,VALID,0.0,VALID,96.423,VALID,-0.005,VALID,21.504,VALID,69.0,VALID,0.0,
2019-04-21, 00:08:06,VALID,916.158,VALID,0.0,VALID,96.736,VALID,-0.014,VALID,21.56,VALID,69.0,VALID,0.0,
2019-04-21, 00:09:06,VALID,916.143,VALID,0.0,VALID,96.614,VALID,-0.015,VALID,21.504,VALID,120.0,VALID,0.0,
2019-04-21, 00:10:06,VALID,916.119,VALID,0.0,VALID,96.702,VALID,-0.021,VALID,21.446,VALID,146.0,VALID,0.0,
2019-04-21, 00:11:06,VALID,916.086,VALID,0.0,VALID,97.027,VALID,-0.021,VALID,21.394,VALID,165.0,VALID,0.0,
2019-04-21, 00:12:06,VALID,916.084,VALID,0.0,VALID,97.226,VALID,-0.033,VALID,21.342,VALID,158.0,VALID,0.0,
2019-04-21, 00:13:06,VALID,916.078,VALID,0.0,VALID,97.461,VALID,-0.016,VALID,21.327,VALID,158.0,VALID,0.0,
2019-04-21, 00:14:06,VALID,916.058,VALID,0.0,VALID,97.726,VALID,-0.025,VALID,21.327,VALID,161.0,VALID,0.0,
2019-04-21, 00:15:06,VALID,916.046,VALID,0.0,VALID,97.856,VALID,-0.004,VALID,21.286,VALID,136.0,VALID,0.0,
2019-04-21, 00:16:06,VALID,916.038,VALID,0.0,VALID,97.803,VALID,0.008,VALID,21.221,VALID,155.0,VALID,0.0,
2019-04-21, 00:17:06,VALID,916.022,VALID,0.0,VALID,97.591,VALID,-0.011,VALID,21.164,VALID,128.0,VALID,0.0,
2019-04-21, 00:18:06,VALID,916.001,VALID,0.0,VALID,97.379,VALID,-0.013,VALID,21.145,VALID,129.0,VALID,0.0,
2019-04-21, 00:19:06,VALID,915.986,VALID,0.0,VALID,97.205,VALID,-0.003,VALID,21.149,VALID,129.0,VALID,0.0,
2019-04-21, 00:20:06,VALID,915.958,VALID,0.0,VALID,97.112,VALID,0.006,VALID,21.167,VALID,121.0,VALID,0.0,
2019-04-21, 00:21:06,VALID,915.927,VALID,0.0,VALID,96.948,VALID,0.012,VALID,21.177,VALID,121.0,VALID,0.0,
2019-04-21, 00:22:06,VALID,915.893,VALID,0.0,VALID,96.883,VALID,0.01,VALID,21.185,VALID,121.0,VALID,0.0,
2019-04-21, 00:23:06,VALID,915.861,VALID,0.0,VALID,96.92,VALID,0.005,VALID,21.214,VALID,120.0,VALID,0.0,
2019-04-21, 00:24:06,VALID,915.835,VALID,0.0,VALID,96.765,VALID,0.017,VALID,21.209,VALID,119.0,VALID,0.0,
2019-04-21, 00:25:06,VALID,915.813,VALID,0.0,VALID,96.679,VALID,0.015,VALID,21.207,VALID,126.0,VALID,0.0,
2019-04-21, 00:26:06,VALID,915.797,VALID,0.0,VALID,96.572,VALID,0.008,VALID,21.185,VALID,121.0,VALID,0.0,
2019-04-21, 00:27:06,VALID,915.777,VALID,0.0,VALID,96.489,VALID,0.005,VALID,21.155,VALID,114.0,VALID,0.0,
2019-04-21, 00:28:06,VALID,915.764,VALID,0.0,VALID,96.551,VALID,-0.0,VALID,21.133,VALID,113.0,VALID,0.0,
2019-04-21, 00:29:06,VALID,915.752,VALID,0.0,VALID,96.571,VALID,0.006,VALID,21.117,VALID,130.0,VALID,0.0,
2019-04-21, 00:30:06,VALID,915.745,VALID,0.0,VALID,96.477,VALID,-0.02,VALID,21.098,VALID,130.0,VALID,0.0,
2019-04-21, 00:31:06,VALID,915.729,VALID,0.0,VALID,96.446,VALID,-0.028,VALID,21.094,VALID,124.0,VALID,0.0,
2019-04-21, 00:32:06,VALID,915.694,VALID,0.0,VALID,96.536,VALID,-0.038,VALID,21.089,VALID,123.0,VALID,0.0,
2019-04-21, 00:33:06,VALID,915.689,VALID,0.0,VALID,96.64,VALID,-0.015,VALID,21.089,VALID,118.0,VALID,0.0,
2019-04-21, 00:34:06,VALID,915.683,VALID,0.0,VALID,96.65,VALID,0.003,VALID,21.083,VALID,113.0,VALID,0.0,
2019-04-21, 00:35:06,VALID,915.65,VALID,0.0,VALID,96.541,VALID,0.024,VALID,21.059,VALID,109.0,VALID,0.0,
2019-04-21, 00:36:06,VALID,915.646,VALID,0.0,VALID,96.42,VALID,0.01,VALID,21.034,VALID,109.0,VALID,0.0,
2019-04-21, 00:37:06,VALID,915.627,VALID,0.0,VALID,96.486,VALID,0.014,VALID,21.037,VALID,97.0,VALID,0.0,
2019-04-21, 00:38:06,VALID,915.617,VALID,0.0,VALID,96.466,VALID,0.012,VALID,21.03,VALID,100.0,VALID,0.0,
2019-04-21, 00:39:06,VALID,915.615,VALID,0.0,VALID,96.319,VALID,0.011,VALID,21.017,VALID,97.0,VALID,0.0,
2019-04-21, 00:40:06,VALID,915.608,VALID,0.0,VALID,96.284,VALID,0.021,VALID,21.008,VALID,92.0,VALID,0.0,
2019-04-21, 00:41:06,VALID,915.599,VALID,0.0,VALID,96.183,VALID,0.002,VALID,21.007,VALID,88.0,VALID,0.0,
2019-04-21, 00:42:06,VALID,915.582,VALID,0.0,VALID,96.234,VALID,0.013,VALID,21.016,VALID,102.0,VALID,0.0,
2019-04-21, 00:43:06,VALID,915.565,VALID,0.0,VALID,96.251,VALID,0.008,VALID,21.035,VALID,114.0,VALID,0.0,
2019-04-21, 00:44:06,VALID,915.557,VALID,0.0,VALID,96.041,VALID,0.012,VALID,21.057,VALID,99.0,VALID,0.0,
2019-04-21, 00:45:06,VALID,915.535,VALID,0.0,VALID,95.756,VALID,0.001,VALID,21.049,VALID,93.0,VALID,0.0,
2019-04-21, 00:46:06,VALID,915.501,VALID,0.0,VALID,95.579,VALID,0.01,VALID,21.042,VALID,85.0,VALID,0.0,
2019-04-21, 00:47:06,VALID,915.486,VALID,0.0,VALID,95.588,VALID,-0.0,VALID,21.04,VALID,69.0,VALID,0.0,
2019-04-21, 00:48:06,VALID,915.436,VALID,0.0,VALID,95.564,VALID,0.002,VALID,21.005,VALID,69.0,VALID,0.0,
2019-04-21, 00:49:06,VALID,915.447,VALID,0.0,VALID,95.792,VALID,0.015,VALID,21.006,VALID,69.0,VALID,0.0,
2019-04-21, 00:50:06,VALID,915.417,VALID,0.0,VALID,95.92,VALID,0.003,VALID,21.022,VALID,74.0,VALID,0.0,
2019-04-21, 00:51:06,VALID,915.415,VALID,0.0,VALID,95.879,VALID,-0.007,VALID,21.045,VALID,82.0,VALID,0.0,
2019-04-21, 00:52:06,VALID,915.412,VALID,0.0,VALID,95.731,VALID,0.003,VALID,21.068,VALID,91.0,VALID,0.0,
2019-04-21, 00:53:06,VALID,915.414,VALID,0.0,VALID,95.642,VALID,0.01,VALID,21.09,VALID,91.0,VALID,0.0,
2019-04-21, 00:54:06,VALID,915.413,VALID,0.0,VALID,95.567,VALID,0.012,VALID,21.116,VALID,91.0,VALID,0.0,
2019-04-21, 00:55:06,VALID,915.4,VALID,0.0,VALID,95.283,VALID,-0.012,VALID,21.123,VALID,91.0,VALID,0.0,
2019-04-21, 00:56:06,VALID,915.377,VALID,0.0,VALID,95.246,VALID,0.016,VALID,21.133,VALID,72.0,VALID,0.0,
2019-04-21, 00:57:06,VALID,915.358,VALID,0.0,VALID,95.32,VALID,-0.008,VALID,21.139,VALID,69.0,VALID,0.0,
2019-04-21, 00:58:06,VALID,915.361,VALID,0.0,VALID,95.299,VALID,0.005,VALID,21.135,VALID,68.0,VALID,0.0,
2019-04-21, 00:59:06,VALID,915.341,VALID,0.0,VALID,95.35,VALID,0.018,VALID,21.143,VALID,67.0,VALID,0.0,
2019-04-21, 01:00:06,VALID,915.317,VALID,0.0,VALID,95.327,VALID,-0.004,VALID,21.146,VALID,67.0,VALID,0.0,
2019-04-21, 01:01:06,VALID,915.298,VALID,0.0,VALID,95.243,VALID,-0.009,VALID,21.153,VALID,67.0,VALID,0.0,
2019-04-21, 01:02:06,VALID,915.27,VALID,0.0,VALID,95.161,VALID,0.0,VALID,21.166,VALID,67.0,VALID,0.0,
2019-04-21, 01:03:06,VALID,915.267,VALID,0.0,VALID,95.121,VALID,-0.012,VALID,21.189,VALID,67.0,VALID,0.0,
2019-04-21, 01:04:06,VALID,915.251,VALID,0.0,VALID,95.086,VALID,0.0,VALID,21.209,VALID,67.0,VALID,0.0,
2019-04-21, 01:05:06,VALID,915.248,VALID,0.0,VALID,95.011,VALID,-0.024,VALID,21.234,VALID,67.0,VALID,0.0,
2019-04-21, 01:06:06,VALID,915.225,VALID,0.0,VALID,94.93,VALID,-0.038,VALID,21.261,VALID,67.0,VALID,0.0,
2019-04-21, 01:07:06,VALID,915.227,VALID,0.0,VALID,94.814,VALID,-0.012,VALID,21.266,VALID,67.0,VALID,0.0,
2019-04-21, 01:08:06,VALID,915.202,VALID,0.0,VALID,94.629,VALID,-0.002,VALID,21.232,VALID,67.0,VALID,0.0,
2019-04-21, 01:09:06,VALID,915.193,VALID,0.0,VALID,94.777,VALID,-0.018,VALID,21.177,VALID,67.0,VALID,0.0,
2019-04-21, 01:10:06,VALID,915.183,VALID,0.0,VALID,94.939,VALID,-0.003,VALID,21.132,VALID,67.0,VALID,0.0,
2019-04-21, 01:11:06,VALID,915.147,VALID,0.0,VALID,95.12,VALID,-0.008,VALID,21.112,VALID,67.0,VALID,0.0,
2019-04-21, 01:12:06,VALID,915.133,VALID,0.0,VALID,95.377,VALID,-0.005,VALID,21.132,VALID,67.0,VALID,0.0,
2019-04-21, 01:13:06,VALID,915.105,VALID,0.0,VALID,95.594,VALID,0.001,VALID,21.167,VALID,67.0,VALID,0.0,
2019-04-21, 01:14:06,VALID,915.101,VALID,0.0,VALID,95.436,VALID,-0.009,VALID,21.172,VALID,67.0,VALID,0.0,
2019-04-21, 01:15:06,VALID,915.084,VALID,0.0,VALID,95.392,VALID,0.004,VALID,21.172,VALID,67.0,VALID,0.0,
2019-04-21, 01:16:06,VALID,915.076,VALID,0.0,VALID,95.371,VALID,0.003,VALID,21.179,VALID,67.0,VALID,0.0,
2019-04-21, 01:17:06,VALID,915.049,VALID,0.0,VALID,95.143,VALID,0.008,VALID,21.152,VALID,67.0,VALID,0.0,
2019-04-21, 01:18:06,VALID,915.024,VALID,0.0,VALID,95.18,VALID,-0.005,VALID,21.138,VALID,67.0,VALID,0.0,
2019-04-21, 01:19:06,VALID,914.986,VALID,0.0,VALID,95.353,VALID,0.004,VALID,21.141,VALID,67.0,VALID,0.0,
2019-04-21, 01:20:06,VALID,914.967,VALID,0.0,VALID,95.54,VALID,0.001,VALID,21.156,VALID,67.0,VALID,0.0,
2019-04-21, 01:21:06,VALID,914.953,VALID,0.0,VALID,95.671,VALID,-0.004,VALID,21.186,VALID,67.0,VALID,0.0,
2019-04-21, 01:22:06,VALID,914.914,VALID,0.0,VALID,95.591,VALID,0.013,VALID,21.208,VALID,67.0,VALID,0.0,
2019-04-21, 01:23:06,VALID,914.892,VALID,0.0,VALID,95.189,VALID,0.019,VALID,21.176,VALID,67.0,VALID,0.0,
2019-04-21, 01:24:06,VALID,914.861,VALID,0.0,VALID,95.185,VALID,0.012,VALID,21.122,VALID,79.0,VALID,0.0,
2019-04-21, 01:25:06,VALID,914.833,VALID,0.0,VALID,95.5,VALID,0.015,VALID,21.088,VALID,103.0,VALID,0.0,
2019-04-21, 01:26:06,VALID,914.829,VALID,0.0,VALID,95.693,VALID,-0.009,VALID,21.083,VALID,102.0,VALID,0.0,
2019-04-21, 01:27:06,VALID,914.815,VALID,0.0,VALID,95.734,VALID,0.008,VALID,21.085,VALID,107.0,VALID,0.0,
2019-04-21, 01:28:06,VALID,914.82,VALID,0.0,VALID,95.73,VALID,0.003,VALID,21.106,VALID,108.0,VALID,0.0,
2019-04-21, 01:29:06,VALID,914.818,VALID,0.0,VALID,95.606,VALID,0.012,VALID,21.131,VALID,109.0,VALID,0.0,
2019-04-21, 01:30:06,VALID,914.78,VALID,0.0,VALID,95.586,VALID,0.003,VALID,21.147,VALID,108.0,VALID,0.0,
2019-04-21, 01:31:06,VALID,914.783,VALID,0.0,VALID,95.758,VALID,0.029,VALID,21.175,VALID,105.0,VALID,0.0,
2019-04-21, 01:32:06,VALID,914.757,VALID,0.0,VALID,95.833,VALID,0.02,VALID,21.183,VALID,106.0,VALID,0.0,
2019-04-21, 01:33:06,VALID,914.734,VALID,0.0,VALID,95.773,VALID,0.014,VALID,21.193,VALID,105.0,VALID,0.0,
2019-04-21, 01:34:06,VALID,914.727,VALID,0.0,VALID,95.736,VALID,0.011,VALID,21.202,VALID,102.0,VALID,0.0,
2019-04-21, 01:35:06,VALID,914.707,VALID,0.0,VALID,95.674,VALID,0.038,VALID,21.208,VALID,106.0,VALID,0.0,
2019-04-21, 01:36:06,VALID,914.705,VALID,0.0,VALID,95.672,VALID,0.031,VALID,21.208,VALID,107.0,VALID,0.0,
2019-04-21, 01:37:06,VALID,914.666,VALID,0.0,VALID,95.715,VALID,0.017,VALID,21.202,VALID,109.0,VALID,0.0,
2019-04-21, 01:38:06,VALID,914.645,VALID,0.0,VALID,95.8,VALID,0.024,VALID,21.201,VALID,109.0,VALID,0.0,
2019-04-21, 01:39:06,VALID,914.632,VALID,0.0,VALID,95.884,VALID,0.028,VALID,21.214,VALID,104.0,VALID,0.0,
2019-04-21, 01:40:06,VALID,914.628,VALID,0.0,VALID,95.907,VALID,0.019,VALID,21.232,VALID,106.0,VALID,0.0,
2019-04-21, 01:41:06,VALID,914.629,VALID,0.0,VALID,95.838,VALID,0.012,VALID,21.246,VALID,114.0,VALID,0.0,
2019-04-21, 01:42:06,VALID,914.604,VALID,0.0,VALID,95.796,VALID,0.012,VALID,21.258,VALID,107.0,VALID,0.0,
2019-04-21, 01:43:06,VALID,914.599,VALID,0.0,VALID,95.804,VALID,0.012,VALID,21.265,VALID,107.0,VALID,0.0,
2019-04-21, 01:44:06,VALID,914.589,VALID,0.0,VALID,95.775,VALID,0.021,VALID,21.279,VALID,103.0,VALID,0.0,
2019-04-21, 01:45:06,VALID,914.591,VALID,0.0,VALID,95.74,VALID,-0.013,VALID,21.294,VALID,103.0,VALID,0.0,
2019-04-21, 01:46:06,VALID,914.578,VALID,0.0,VALID,95.73,VALID,0.006,VALID,21.29,VALID,112.0,VALID,0.0,
2019-04-21, 01:47:06,VALID,914.551,VALID,0.0,VALID,95.769,VALID,0.002,VALID,21.291,VALID,117.0,VALID,0.0,
2019-04-21, 01:48:06,VALID,914.557,VALID,0.0,VALID,95.857,VALID,-0.009,VALID,21.285,VALID,122.0,VALID,0.0,
2019-04-21, 01:49:06,VALID,914.565,VALID,0.0,VALID,95.946,VALID,0.003,VALID,21.282,VALID,116.0,VALID,0.0,
2019-04-21, 01:50:06,VALID,914.564,VALID,0.0,VALID,95.981,VALID,-0.013,VALID,21.261,VALID,112.0,VALID,0.0,
2019-04-21, 01:51:06,VALID,914.56,VALID,0.0,VALID,95.999,VALID,0.0,VALID,21.249,VALID,116.0,VALID,0.0,
2019-04-21, 01:52:06,VALID,914.544,VALID,0.0,VALID,96.081,VALID,-0.017,VALID,21.241,VALID,119.0,VALID,0.0,
2019-04-21, 01:53:06,VALID,914.515,VALID,0.0,VALID,96.193,VALID,-0.013,VALID,21.229,VALID,129.0,VALID,0.0,
2019-04-21, 01:54:06,VALID,914.5,VALID,0.0,VALID,96.091,VALID,0.004,VALID,21.23,VALID,124.0,VALID,0.0,
2019-04-21, 01:55:06,VALID,914.487,VALID,0.0,VALID,95.896,VALID,-0.001,VALID,21.243,VALID,124.0,VALID,0.0,
2019-04-21, 01:56:06,VALID,914.45,VALID,0.0,VALID,95.76,VALID,-0.001,VALID,21.255,VALID,129.0,VALID,0.0,
2019-04-21, 01:57:06,VALID,914.411,VALID,0.0,VALID,95.719,VALID,-0.01,VALID,21.274,VALID,126.0,VALID,0.0,
2019-04-21, 01:58:06,VALID,914.389,VALID,0.0,VALID,95.612,VALID,0.005,VALID,21.293,VALID,127.0,VALID,0.0,
2019-04-21, 01:59:06,VALID,914.371,VALID,0.0,VALID,95.509,VALID,0.008,VALID,21.3,VALID,125.0,VALID,0.0,
2019-04-21, 02:00:06,VALID,914.352,VALID,0.0,VALID,95.523,VALID,-0.009,VALID,21.272,VALID,117.0,VALID,0.0,
2019-04-21, 02:01:06,VALID,914.352,VALID,0.0,VALID,95.748,VALID,-0.011,VALID,21.239,VALID,130.0,VALID,0.0,
2019-04-21, 02:02:06,VALID,914.313,VALID,0.0,VALID,95.928,VALID,-0.027,VALID,21.24,VALID,133.0,VALID,0.0,
2019-04-21, 02:03:06,VALID,914.287,VALID,0.0,VALID,95.904,VALID,0.003,VALID,21.218,VALID,116.0,VALID,0.0,
2019-04-21, 02:04:06,VALID,914.255,VALID,0.0,VALID,96.121,VALID,-0.02,VALID,21.148,VALID,126.0,VALID,0.0,
2019-04-21, 02:05:06,VALID,914.258,VALID,0.0,VALID,96.543,VALID,-0.01,VALID,21.104,VALID,129.0,VALID,0.0,
2019-04-21, 02:06:06,VALID,914.232,VALID,0.0,VALID,96.761,VALID,-0.017,VALID,21.075,VALID,128.0,VALID,0.0,
2019-04-21, 02:07:06,VALID,914.215,VALID,0.0,VALID,96.817,VALID,-0.012,VALID,21.053,VALID,130.0,VALID,0.0,
2019-04-21, 02:08:06,VALID,914.225,VALID,0.0,VALID,96.945,VALID,-0.012,VALID,21.038,VALID,126.0,VALID,0.0,
2019-04-21, 02:09:06,VALID,914.222,VALID,0.0,VALID,97.063,VALID,-0.011,VALID,21.023,VALID,114.0,VALID,0.0,
2019-04-21, 02:10:06,VALID,914.189,VALID,0.0,VALID,97.06,VALID,-0.002,VALID,21.001,VALID,107.0,VALID,0.0,
2019-04-21, 02:11:06,VALID,914.209,VALID,0.0,VALID,97.155,VALID,-0.007,VALID,20.991,VALID,108.0,VALID,0.0,
2019-04-21, 02:12:06,VALID,914.185,VALID,0.0,VALID,97.263,VALID,-0.014,VALID,20.999,VALID,108.0,VALID,0.0,
2019-04-21, 02:13:06,VALID,914.172,VALID,0.0,VALID,97.294,VALID,-0.008,VALID,21.014,VALID,108.0,VALID,0.0,
2019-04-21, 02:14:06,VALID,914.174,VALID,0.0,VALID,97.213,VALID,-0.011,VALID,21.028,VALID,108.0,VALID,0.0,
2019-04-21, 02:15:06,VALID,914.153,VALID,0.0,VALID,97.101,VALID,-0.008,VALID,21.032,VALID,108.0,VALID,0.0,
2019-04-21, 02:16:06,VALID,914.162,VALID,0.0,VALID,96.938,VALID,-0.007,VALID,21.026,VALID,108.0,VALID,0.0,
2019-04-21, 02:17:06,VALID,914.16,VALID,0.0,VALID,96.837,VALID,-0.015,VALID,21.011,VALID,108.0,VALID,0.0,
2019-04-21, 02:18:06,VALID,914.161,VALID,0.0,VALID,96.847,VALID,-0.025,VALID,21.0,VALID,108.0,VALID,0.0,
2019-04-21, 02:19:06,VALID,914.164,VALID,0.0,VALID,96.856,VALID,-0.016,VALID,20.98,VALID,108.0,VALID,0.0,
2019-04-21, 02:20:06,VALID,914.169,VALID,0.0,VALID,96.845,VALID,-0.011,VALID,20.971,VALID,107.0,VALID,0.0,
2019-04-21, 02:21:06,VALID,914.15,VALID,0.0,VALID,96.755,VALID,-0.02,VALID,20.953,VALID,95.0,VALID,0.0,
2019-04-21, 02:22:06,VALID,914.146,VALID,0.0,VALID,96.69,VALID,-0.009,VALID,20.935,VALID,91.0,VALID,0.0,
2019-04-21, 02:23:06,VALID,914.155,VALID,0.0,VALID,96.763,VALID,-0.028,VALID,20.916,VALID,103.0,VALID,0.0,
2019-04-21, 02:24:06,VALID,914.143,VALID,0.0,VALID,96.871,VALID,-0.025,VALID,20.917,VALID,104.0,VALID,0.0,
2019-04-21, 02:25:06,VALID,914.145,VALID,0.0,VALID,96.843,VALID,-0.016,VALID,20.919,VALID,107.0,VALID,0.0,
2019-04-21, 02:26:06,VALID,914.14,VALID,0.0,VALID,96.672,VALID,-0.007,VALID,20.913,VALID,119.0,VALID,0.0,
2019-04-21, 02:27:06,VALID,914.128,VALID,0.0,VALID,96.582,VALID,-0.014,VALID,20.956,VALID,120.0,VALID,0.0,
2019-04-21, 02:28:06,VALID,914.138,VALID,0.0,VALID,96.291,VALID,-0.016,VALID,21.034,VALID,116.0,VALID,0.0,
2019-04-21, 02:29:06,VALID,914.143,VALID,0.0,VALID,95.87,VALID,-0.023,VALID,21.066,VALID,111.0,VALID,0.0,
2019-04-21, 02:30:06,VALID,914.146,VALID,0.0,VALID,95.686,VALID,0.025,VALID,21.069,VALID,113.0,VALID,0.0,
2019-04-21, 02:31:06,VALID,914.143,VALID,0.0,VALID,95.481,VALID,0.015,VALID,21.042,VALID,113.0,VALID,0.0,
2019-04-21, 02:32:06,VALID,914.171,VALID,0.0,VALID,95.555,VALID,0.032,VALID,21.018,VALID,113.0,VALID,0.0,
2019-04-21, 02:33:06,VALID,914.134,VALID,0.0,VALID,95.806,VALID,0.026,VALID,21.026,VALID,115.0,VALID,0.0,
2019-04-21, 02:34:06,VALID,914.119,VALID,0.0,VALID,95.76,VALID,0.024,VALID,21.014,VALID,120.0,VALID,0.0,
2019-04-21, 02:35:06,VALID,914.101,VALID,0.0,VALID,95.688,VALID,0.033,VALID,20.993,VALID,131.0,VALID,0.0,
2019-04-21, 02:36:06,VALID,914.097,VALID,0.0,VALID,95.724,VALID,0.021,VALID,20.982,VALID,129.0,VALID,0.0,
2019-04-21, 02:37:06,VALID,914.093,VALID,0.0,VALID,95.953,VALID,0.02,VALID,21.004,VALID,139.0,VALID,0.0,
2019-04-21, 02:38:06,VALID,914.069,VALID,0.0,VALID,95.983,VALID,0.028,VALID,21.015,VALID,128.0,VALID,0.0,
2019-04-21, 02:39:06,VALID,914.072,VALID,0.0,VALID,96.096,VALID,0.032,VALID,21.021,VALID,111.0,VALID,0.0,
2019-04-21, 02:40:06,VALID,914.063,VALID,0.0,VALID,96.186,VALID,0.04,VALID,21.035,VALID,126.0,VALID,0.0,
2019-04-21, 02:41:06,VALID,914.059,VALID,0.0,VALID,96.278,VALID,0.019,VALID,21.04,VALID,141.0,VALID,0.0,
2019-04-21, 02:42:06,VALID,914.055,VALID,0.0,VALID,96.295,VALID,0.016,VALID,21.042,VALID,132.0,VALID,0.0,
2019-04-21, 02:43:06,VALID,914.052,VALID,0.0,VALID,96.28,VALID,0.028,VALID,21.006,VALID,128.0,VALID,0.0,
2019-04-21, 02:44:06,VALID,914.069,VALID,0.0,VALID,96.521,VALID,0.035,VALID,20.967,VALID,128.0,VALID,0.0,
2019-04-21, 02:45:06,VALID,914.06,VALID,0.0,VALID,96.905,VALID,0.011,VALID,20.941,VALID,130.0,VALID,0.0,
2019-04-21, 02:46:06,VALID,914.053,VALID,0.0,VALID,97.002,VALID,0.031,VALID,20.872,VALID,121.0,VALID,0.0,
2019-04-21, 02:47:06,VALID,914.038,VALID,0.0,VALID,97.318,VALID,0.026,VALID,20.821,VALID,123.0,VALID,0.0,
2019-04-21, 02:48:06,VALID,914.025,VALID,0.0,VALID,97.548,VALID,0.02,VALID,20.763,VALID,116.0,VALID,0.0,
2019-04-21, 02:49:06,VALID,914.033,VALID,0.0,VALID,97.745,VALID,0.022,VALID,20.715,VALID,115.0,VALID,0.0,
2019-04-21, 02:50:06,VALID,914.01,VALID,0.0,VALID,97.985,VALID,0.029,VALID,20.703,VALID,113.0,VALID,0.0,
2019-04-21, 02:51:06,VALID,913.998,VALID,0.0,VALID,98.1,VALID,0.023,VALID,20.693,VALID,111.0,VALID,0.0,
2019-04-21, 02:52:06,VALID,913.998,VALID,0.0,VALID,98.088,VALID,0.022,VALID,20.691,VALID,110.0,VALID,1.139,
2019-04-21, 02:53:06,VALID,913.992,VALID,0.0,VALID,98.09,VALID,0.033,VALID,20.703,VALID,109.0,VALID,1.511,
2019-04-21, 02:54:06,VALID,913.985,VALID,0.0,VALID,98.082,VALID,0.037,VALID,20.764,VALID,108.0,VALID,1.63,
2019-04-21, 02:55:06,VALID,913.963,VALID,0.0,VALID,97.955,VALID,0.035,VALID,20.805,VALID,108.0,VALID,1.563,
2019-04-21, 02:56:06,VALID,913.947,VALID,0.0,VALID,97.777,VALID,0.036,VALID,20.834,VALID,106.0,VALID,1.338,
2019-04-21, 02:57:06,VALID,913.905,VALID,0.0,VALID,97.594,VALID,0.027,VALID,20.871,VALID,101.0,VALID,1.103,
2019-04-21, 02:58:06,VALID,913.886,VALID,0.0,VALID,97.342,VALID,0.06,VALID,20.892,VALID,98.0,VALID,1.055,
2019-04-21, 02:59:06,VALID,913.867,VALID,0.0,VALID,97.104,VALID,0.032,VALID,20.907,VALID,109.0,VALID,1.122,
2019-04-21, 03:00:06,VALID,913.863,VALID,0.0,VALID,96.997,VALID,0.001,VALID,20.937,VALID,117.0,VALID,1.489,
2019-04-21, 03:01:06,VALID,913.865,VALID,0.0,VALID,96.904,VALID,0.007,VALID,20.977,VALID,116.0,VALID,1.573,
2019-04-21, 03:02:06,VALID,913.847,VALID,0.0,VALID,96.834,VALID,-0.0,VALID,21.019,VALID,114.0,VALID,1.401,
2019-04-21, 03:03:06,VALID,913.815,VALID,0.0,VALID,96.686,VALID,-0.003,VALID,21.039,VALID,116.0,VALID,1.236,
2019-04-21, 03:04:06,VALID,913.806,VALID,0.0,VALID,96.622,VALID,-0.025,VALID,21.058,VALID,127.0,VALID,1.273,
2019-04-21, 03:05:06,VALID,913.795,VALID,0.0,VALID,96.593,VALID,-0.007,VALID,21.087,VALID,137.0,VALID,0.489,
2019-04-21, 03:06:06,VALID,913.792,VALID,0.0,VALID,96.367,VALID,0.003,VALID,21.095,VALID,135.0,VALID,0.0,
2019-04-21, 03:07:06,VALID,913.778,VALID,0.0,VALID,96.326,VALID,-0.0,VALID,21.094,VALID,123.0,VALID,0.0,
2019-04-21, 03:08:06,VALID,913.787,VALID,0.0,VALID,96.431,VALID,0.0,VALID,21.116,VALID,137.0,VALID,0.0,
2019-04-21, 03:09:06,VALID,913.769,VALID,0.0,VALID,96.347,VALID,0.013,VALID,21.12,VALID,131.0,VALID,0.0,
2019-04-21, 03:10:06,VALID,913.769,VALID,0.0,VALID,96.209,VALID,0.001,VALID,21.085,VALID,121.0,VALID,0.0,
2019-04-21, 03:11:06,VALID,913.739,VALID,0.0,VALID,96.035,VALID,0.001,VALID,21.101,VALID,117.0,VALID,0.0,
2019-04-21, 03:12:06,VALID,913.708,VALID,0.0,VALID,95.414,VALID,-0.002,VALID,21.2,VALID,123.0,VALID,0.0,
2019-04-21, 03:13:06,VALID,913.698,VALID,0.0,VALID,95.273,VALID,0.009,VALID,21.247,VALID,130.0,VALID,1.625,
2019-04-21, 03:14:06,VALID,913.701,VALID,0.0,VALID,95.288,VALID,0.01,VALID,21.28,VALID,123.0,VALID,2.247,
2019-04-21, 03:15:06,VALID,913.683,VALID,0.0,VALID,95.297,VALID,0.005,VALID,21.274,VALID,116.0,VALID,1.98,
2019-04-21, 03:16:06,VALID,913.674,VALID,0.0,VALID,95.388,VALID,0.004,VALID,21.249,VALID,127.0,VALID,1.604,
2019-04-21, 03:17:06,VALID,913.68,VALID,0.0,VALID,95.62,VALID,-0.024,VALID,21.23,VALID,127.0,VALID,1.148,
2019-04-21, 03:18:06,VALID,913.675,VALID,0.0,VALID,95.737,VALID,-0.024,VALID,21.211,VALID,123.0,VALID,1.266,
2019-04-21, 03:19:06,VALID,913.685,VALID,0.0,VALID,95.815,VALID,-0.01,VALID,21.198,VALID,137.0,VALID,0.556,
2019-04-21, 03:20:06,VALID,913.703,VALID,0.0,VALID,95.816,VALID,-0.012,VALID,21.191,VALID,122.0,VALID,0.0,
2019-04-21, 03:21:06,VALID,913.716,VALID,0.0,VALID,95.91,VALID,-0.02,VALID,21.184,VALID,128.0,VALID,0.141,
2019-04-21, 03:22:06,VALID,913.698,VALID,0.0,VALID,95.793,VALID,-0.018,VALID,21.198,VALID,129.0,VALID,0.837,
2019-04-21, 03:23:06,VALID,913.711,VALID,0.0,VALID,95.632,VALID,-0.026,VALID,21.22,VALID,130.0,VALID,0.454,
2019-04-21, 03:24:06,VALID,913.708,VALID,0.0,VALID,95.556,VALID,-0.031,VALID,21.244,VALID,120.0,VALID,0.066,
2019-04-21, 03:25:06,VALID,913.69,VALID,0.0,VALID,95.384,VALID,-0.008,VALID,21.246,VALID,113.0,VALID,0.0,
2019-04-21, 03:26:06,VALID,913.686,VALID,0.0,VALID,95.204,VALID,-0.014,VALID,21.215,VALID,107.0,VALID,0.0,
2019-04-21, 03:27:06,VALID,913.669,VALID,0.0,VALID,95.379,VALID,-0.019,VALID,21.196,VALID,138.0,VALID,0.0,
2019-04-21, 03:28:06,VALID,913.656,VALID,0.0,VALID,95.286,VALID,-0.025,VALID,21.196,VALID,125.0,VALID,0.0,
2019-04-21, 03:29:06,VALID,913.649,VALID,0.0,VALID,95.115,VALID,-0.02,VALID,21.208,VALID,131.0,VALID,0.0,
2019-04-21, 03:30:06,VALID,913.653,VALID,0.0,VALID,95.123,VALID,-0.006,VALID,21.232,VALID,128.0,VALID,0.0,
2019-04-21, 03:31:06,VALID,913.655,VALID,0.0,VALID,95.056,VALID,0.019,VALID,21.238,VALID,151.0,VALID,0.0,
2019-04-21, 03:32:06,VALID,913.675,VALID,0.0,VALID,95.11,VALID,0.021,VALID,21.217,VALID,106.0,VALID,0.0,
2019-04-21, 03:33:06,VALID,913.671,VALID,0.0,VALID,95.234,VALID,0.003,VALID,21.193,VALID,87.0,VALID,0.0,
2019-04-21, 03:34:06,VALID,913.672,VALID,0.0,VALID,95.427,VALID,0.008,VALID,21.184,VALID,116.0,VALID,0.0,
2019-04-21, 03:35:06,VALID,913.662,VALID,0.0,VALID,95.51,VALID,0.018,VALID,21.171,VALID,122.0,VALID,0.0,
2019-04-21, 03:36:06,VALID,913.64,VALID,0.0,VALID,95.429,VALID,0.016,VALID,21.123,VALID,127.0,VALID,0.0,
2019-04-21, 03:37:06,VALID,913.616,VALID,0.0,VALID,95.705,VALID,0.001,VALID,21.087,VALID,125.0,VALID,0.0,
2019-04-21, 03:38:06,VALID,913.603,VALID,0.0,VALID,95.885,VALID,0.005,VALID,21.02,VALID,113.0,VALID,0.0,
2019-04-21, 03:39:06,VALID,913.613,VALID,0.0,VALID,96.146,VALID,0.006,VALID,20.965,VALID,117.0,VALID,0.0,
2019-04-21, 03:40:06,VALID,913.587,VALID,0.0,VALID,96.481,VALID,0.002,VALID,20.938,VALID,122.0,VALID,0.0,
2019-04-21, 03:41:06,VALID,913.612,VALID,0.0,VALID,96.59,VALID,-0.003,VALID,20.948,VALID,122.0,VALID,0.0,
2019-04-21, 03:42:06,VALID,913.616,VALID,0.0,VALID,96.403,VALID,-0.01,VALID,20.989,VALID,120.0,VALID,0.0,